Location: Medlow Airstrip Trail, Medlow Bath NSW 2780, Australia
(33.6682°S, 150.3233°E)
Time: 16:05:54
(UTC+11:00)

Explorer 11/Cluster Stage 4 - Pass Details

Date: 30 September 2019
Orbit: 467 x 1259 km, 28.8° (Epoch: 22 October)

Event Time Altitude Azimuth Distance (km) Brightness Sun altitude
Rises 06:21:58 0° 299° (WNW) 2,492 8.6 8.3°
Reaches altitude 10° 06:24:14 10° 311° (NW) 1,637 7.8 8.7°
Maximum altitude 06:27:30 30° 13° (NNE) 914 7.3 9.4°
Drops below altitude 10° 06:31:07 10° 76° (ENE) 1,816 10.8 10.2°
Sets 06:33:45 0° 86° (E) 2,822 11.8 10.7°
